Location: Unspecified
(49.8670°N, 0.0000°E)
Time: 04:00:41
(UTC+00:00)

Vanguard 1 - Pass Details

Date: 23 June 2019
Orbit: 653 x 3830 km, 34.3° (Epoch: 17 July)

Event Time Altitude Azimuth Distance (km) Brightness Sun altitude
Rises 06:10:36 0° 262° (W) 6,320 13.6 19.0°
Reaches altitude 10° 06:16:11 10° 253° (WSW) 4,716 13.0 19.9°
Maximum altitude 06:25:21 26° 203° (SSW) 2,582 12.1 21.3°
Drops below altitude 10° 06:31:15 10° 149° (SSE) 2,944 12.9 22.3°
Sets 06:33:51 0° 135° (SE) 3,612 13.5 22.7°
